| time (UTC) | temp F | wind direction | speed MPH | gust MPH | rain 1hr in | rain 24hr in | rain mn in | humidity % | barometer mb |
| 20260906072528 | 82 | 286 | 2.0 | 5.0 | 0.00 | 0.00 | 0.00 | 61 | 1020.2 |
| 20260906072030 | 82 | 310 | 2.0 | 5.0 | 0.00 | 0.00 | 0.00 | 60 | 1020.2 |
| 20260906071527 | 81 | 270 | 2.0 | 6.0 | 0.00 | 0.00 | 0.00 | 60 | 1020.2 |
| 20260906071030 | 81 | 297 | 1.0 | 6.0 | 0.00 | 0.00 | 0.00 | 61 | 1020.1 |
| 20260906070528 | 80 | 315 | 0.0 | 3.0 | 0.00 | 0.00 | 0.00 | 61 | 1020.1 |
| 20260906065030 | 78 | 263 | 0.0 | 1.0 | 0.00 | 0.00 | 0.00 | 63 | 1020.0 |
| 20260906064528 | 78 | 182 | 0.0 | 1.0 | 0.00 | 0.00 | 0.00 | 63 | 1019.9 |
| 20260906064029 | 77 | 221 | 1.0 | 2.0 | 0.00 | 0.00 | 0.00 | 63 | 1019.8 |
| 20260906063529 | 77 | 184 | 1.0 | 3.0 | 0.00 | 0.00 | 0.00 | 63 | 1019.9 |
| 20260906063030 | 76 | 190 | 3.0 | 5.0 | 0.00 | 0.00 | 0.00 | 63 | 1019.8 |
| 20260906062030 | 76 | 175 | 3.0 | 5.0 | 0.00 | 0.00 | 0.00 | 64 | 1019.9 |
| 20260906061529 | 75 | 161 | 2.0 | 3.0 | 0.00 | 0.00 | 0.00 | 64 | 1019.8 |
| 20260906061031 | 75 | 174 | 3.0 | 3.0 | 0.00 | 0.00 | 0.00 | 65 | 1019.7 |
| 20260906060030 | 74 | 182 | 2.0 | 5.0 | 0.00 | 0.00 | 0.00 | 65 | 1019.6 |
| 20260906055528 | 74 | 168 | 1.0 | 3.0 | 0.00 | 0.00 | 0.00 | 66 | 1019.6 |
| 20260906055031 | 73 | 197 | 2.0 | 6.0 | 0.00 | 0.00 | 0.00 | 66 | 1019.5 |
| 20260906054529 | 73 | 213 | 3.0 | 5.0 | 0.00 | 0.00 | 0.00 | 66 | 1019.4 |
| 20260906054030 | 73 | 181 | 3.0 | 5.0 | 0.00 | 0.00 | 0.00 | 66 | 1019.3 |
| 20260906053528 | 73 | 180 | 3.0 | 6.0 | 0.00 | 0.00 | 0.00 | 66 | 1019.2 |
| 20260906053030 | 72 | 193 | 2.0 | 5.0 | 0.00 | 0.00 | 0.00 | 67 | 1019.4 |
| 20260906052529 | 72 | 184 | 2.0 | 6.0 | 0.00 | 0.00 | 0.00 | 67 | 1019.3 |
| 20260906052030 | 72 | 214 | 2.0 | 3.0 | 0.00 | 0.00 | 0.00 | 67 | 1019.4 |
| 20260906051528 | 72 | 196 | 1.0 | 3.0 | 0.00 | 0.00 | 0.00 | 67 | 1019.3 |
| 20260906051030 | 72 | 202 | 2.0 | 3.0 | 0.00 | 0.00 | 0.00 | 67 | 1019.3 |
| 20260906050528 | 71 | 201 | 1.0 | 3.0 | 0.00 | 0.00 | 0.00 | 67 | 1019.3 |
| 20260906050030 | 71 | 192 | 2.0 | 5.0 | 0.00 | 0.00 | 0.00 | 67 | 1019.2 |
| 20260906045528 | 71 | 198 | 0.0 | 3.0 | 0.00 | 0.00 | 0.00 | 67 | 1019.2 |
| 20260906044528 | 71 | 201 | 1.0 | 2.0 | 0.00 | 0.00 | 0.00 | 67 | 1019.0 |
| 20260906044030 | 71 | 181 | 1.0 | 3.0 | 0.00 | 0.00 | 0.00 | 67 | 1019.0 |
| 20260906043529 | 71 | 188 | 3.0 | 5.0 | 0.00 | 0.00 | 0.00 | 67 | 1019.0 |
| 20260906043030 | 71 | 187 | 2.0 | 5.0 | 0.00 | 0.00 | 0.00 | 67 | 1018.9 |
| 20260906042528 | 71 | 212 | 2.0 | 5.0 | 0.00 | 0.00 | 0.00 | 67 | 1018.9 |
| 20260906042029 | 70 | 189 | 2.0 | 5.0 | 0.00 | 0.00 | 0.00 | 67 | 1018.9 |
| 20260906041528 | 70 | 187 | 2.0 | 3.0 | 0.00 | 0.00 | 0.00 | 67 | 1018.8 |
| 20260906041029 | 70 | 180 | 1.0 | 3.0 | 0.00 | 0.00 | 0.00 | 67 | 1018.8 |
| 20260906040529 | 70 | 180 | 1.0 | 3.0 | 0.00 | 0.00 | 0.00 | 66 | 1018.8 |
| 20260906040030 | 70 | 180 | 2.0 | 2.0 | 0.00 | 0.00 | 0.00 | 66 | 1018.8 |
| 20260906035030 | 70 | 172 | 0.0 | 2.0 | 0.00 | 0.00 | 0.00 | 65 | 1018.6 |
| 20260906033029 | 71 | 190 | 2.0 | 3.0 | 0.00 | 0.00 | 0.00 | 64 | 1018.5 |
| 20260906032527 | 71 | 215 | 2.0 | 3.0 | 0.00 | 0.00 | 0.00 | 64 | 1018.5 |
| 20260906032029 | 71 | 224 | 0.0 | 3.0 | 0.00 | 0.00 | 0.00 | 64 | 1018.5 |
| 20260906031528 | 71 | 224 | 1.0 | 3.0 | 0.00 | 0.00 | 0.00 | 64 | 1018.5 |
| 20260906031030 | 71 | 204 | 1.0 | 2.0 | 0.00 | 0.00 | 0.00 | 64 | 1018.2 |
| 20260906030528 | 71 | 182 | 0.0 | 2.0 | 0.00 | 0.00 | 0.00 | 64 | 1018.3 |
| 20260906030029 | 71 | 202 | 0.0 | 2.0 | 0.00 | 0.00 | 0.00 | 63 | 1018.3 |
| 20260906025528 | 71 | 270 | 0.0 | 3.0 | 0.00 | 0.00 | 0.00 | 63 | 1018.3 |
| 20260906025030 | 72 | 0 | 1.0 | 5.0 | 0.00 | 0.00 | 0.00 | 64 | 1018.4 |
| 20260906024528 | 72 | 338 | 3.0 | 5.0 | 0.00 | 0.00 | 0.00 | 64 | 1018.4 |
| 20260906024029 | 72 | 296 | 1.0 | 3.0 | 0.00 | 0.00 | 0.00 | 64 | 1018.2 |
| 20260906023528 | 72 | 302 | 0.0 | 1.0 | 0.00 | 0.00 | 0.00 | 63 | 1018.1 |
| 20260906023030 | 72 | 207 | 0.0 | 2.0 | 0.00 | 0.00 | 0.00 | 63 | 1017.9 |
| 20260906022528 | 72 | 208 | 2.0 | 3.0 | 0.00 | 0.00 | 0.00 | 63 | 1017.8 |
| 20260906022029 | 72 | 198 | 1.0 | 2.0 | 0.00 | 0.00 | 0.00 | 63 | 1017.9 |
| 20260906021528 | 72 | 225 | 1.0 | 1.0 | 0.00 | 0.00 | 0.00 | 63 | 1017.8 |
| 20260906021029 | 72 | 205 | 1.0 | 2.0 | 0.00 | 0.00 | 0.00 | 63 | 1017.7 |
| 20260906020528 | 72 | 225 | 1.0 | 2.0 | 0.00 | 0.00 | 0.00 | 63 | 1017.9 |
| 20260906020029 | 72 | 248 | 1.0 | 2.0 | 0.00 | 0.00 | 0.00 | 62 | 1017.8 |
| 20260906015529 | 72 | 199 | 1.0 | 2.0 | 0.00 | 0.00 | 0.00 | 62 | 1017.8 |
| 20260906015030 | 72 | 209 | 1.0 | 2.0 | 0.00 | 0.00 | 0.00 | 62 | 1017.7 |
| 20260906014528 | 72 | 227 | 1.0 | 3.0 | 0.00 | 0.00 | 0.00 | 62 | 1017.7 |
| 20260906014029 | 72 | 208 | 2.0 | 3.0 | 0.00 | 0.00 | 0.00 | 62 | 1017.6 |
| 20260906013528 | 72 | 205 | 2.0 | 3.0 | 0.00 | 0.00 | 0.00 | 62 | 1017.5 |
| 20260906013030 | 72 | 229 | 1.0 | 3.0 | 0.00 | 0.00 | 0.00 | 62 | 1017.5 |
| 20260906012528 | 72 | 209 | 2.0 | 3.0 | 0.00 | 0.00 | 0.00 | 62 | 1017.4 |
| 20260906012029 | 72 | 227 | 2.0 | 5.0 | 0.00 | 0.00 | 0.00 | 61 | 1017.4 |
| 20260906011528 | 72 | 210 | 2.0 | 3.0 | 0.00 | 0.00 | 0.00 | 61 | 1017.5 |
| 20260906011030 | 72 | 202 | 2.0 | 3.0 | 0.00 | 0.00 | 0.00 | 61 | 1017.4 |
| 20260906010528 | 73 | 236 | 2.0 | 2.0 | 0.00 | 0.00 | 0.00 | 60 | 1017.4 |
| 20260906010029 | 73 | 216 | 2.0 | 3.0 | 0.00 | 0.00 | 0.00 | 60 | 1017.4 |
| 20260906005528 | 73 | 214 | 1.0 | 2.0 | 0.00 | 0.00 | 0.00 | 60 | 1017.3 |
| 20260906005030 | 73 | 177 | 1.0 | 2.0 | 0.00 | 0.00 | 0.00 | 59 | 1017.4 |
| 20260906004528 | 73 | 212 | 1.0 | 2.0 | 0.00 | 0.00 | 0.00 | 59 | 1017.5 |
| 20260906004029 | 73 | 202 | 1.0 | 1.0 | 0.00 | 0.00 | 0.00 | 59 | 1017.6 |
| 20260906003528 | 73 | 196 | 0.0 | 1.0 | 0.00 | 0.00 | 0.00 | 58 | 1017.6 |
| 20260906003029 | 73 | 245 | 0.0 | 0.0 | 0.00 | 0.00 | 0.00 | 58 | 1017.6 |
| 20260906002528 | 73 | 254 | 0.0 | 0.0 | 0.00 | 0.00 | 0.00 | 58 | 1017.6 |
| 20260906002029 | 73 | 232 | 0.0 | 0.0 | 0.00 | 0.00 | 0.00 | 58 | 1017.4 |
| 20260906001528 | 73 | 227 | 1.0 | 2.0 | 0.00 | 0.00 | 0.00 | 58 | 1017.4 |
| 20260906001030 | 74 | 211 | 2.0 | 3.0 | 0.00 | 0.00 | 0.00 | 58 | 1017.4 |
| 20260906000527 | 74 | 199 | 2.0 | 3.0 | 0.00 | 0.00 | 0.00 | 57 | 1017.4 |
| 20260906000029 | 74 | 194 | 2.0 | 3.0 | 0.00 | 0.00 | 0.00 | 57 | 1017.5 |
| 20260905235029 | 74 | 202 | 1.0 | 3.0 | 0.00 | 0.00 | 0.00 | 56 | 1017.5 |
| 20260905234528 | 74 | 212 | 2.0 | 3.0 | 0.00 | 0.00 | 0.00 | 56 | 1017.4 |
| 20260905234030 | 75 | 214 | 2.0 | 2.0 | 0.00 | 0.00 | 0.00 | 56 | 1017.4 |
| 20260905233029 | 75 | 196 | 1.0 | 3.0 | 0.00 | 0.00 | 0.00 | 55 | 1017.3 |
| 20260905232528 | 75 | 223 | 1.0 | 2.0 | 0.00 | 0.00 | 0.00 | 55 | 1017.3 |
| 20260905232029 | 75 | 220 | 1.0 | 2.0 | 0.00 | 0.00 | 0.00 | 55 | 1017.3 |
| 20260905231528 | 76 | 204 | 1.0 | 1.0 | 0.00 | 0.00 | 0.00 | 55 | 1017.4 |
| 20260905231029 | 76 | 220 | 0.0 | 1.0 | 0.00 | 0.00 | 0.00 | 55 | 1017.5 |
| 20260905230528 | 76 | 207 | 2.0 | 3.0 | 0.00 | 0.00 | 0.00 | 55 | 1017.4 |
| 20260905225528 | 76 | 202 | 2.0 | 5.0 | 0.00 | 0.00 | 0.00 | 54 | 1017.3 |
| 20260905225031 | 76 | 202 | 2.0 | 5.0 | 0.00 | 0.00 | 0.00 | 54 | 1017.3 |
| 20260905224528 | 76 | 203 | 3.0 | 6.0 | 0.00 | 0.00 | 0.00 | 54 | 1017.3 |
| 20260905223528 | 77 | 223 | 1.0 | 2.0 | 0.00 | 0.00 | 0.00 | 54 | 1017.3 |
| 20260905222528 | 77 | 201 | 1.0 | 3.0 | 0.00 | 0.00 | 0.00 | 53 | 1017.2 |
| 20260905221528 | 77 | 187 | 3.0 | 6.0 | 0.00 | 0.00 | 0.00 | 53 | 1017.2 |
| 20260905221029 | 77 | 193 | 3.0 | 5.0 | 0.00 | 0.00 | 0.00 | 53 | 1017.1 |
| 20260905220030 | 77 | 185 | 3.0 | 6.0 | 0.00 | 0.00 | 0.00 | 53 | 1017.0 |
| 20260905215528 | 77 | 193 | 2.0 | 6.0 | 0.00 | 0.00 | 0.00 | 53 | 1017.2 |
| 20260905215030 | 77 | 189 | 2.0 | 6.0 | 0.00 | 0.00 | 0.00 | 53 | 1017.2 |
| 20260905214528 | 77 | 192 | 3.0 | 7.0 | 0.00 | 0.00 | 0.00 | 53 | 1017.2 |
| 20260905214030 | 77 | 207 | 2.0 | 5.0 | 0.00 | 0.00 | 0.00 | 52 | 1017.2 |
| 20260905213528 | 77 | 203 | 2.0 | 3.0 | 0.00 | 0.00 | 0.00 | 52 | 1017.2 |
| 20260905213030 | 77 | 174 | 1.0 | 2.0 | 0.00 | 0.00 | 0.00 | 52 | 1016.9 |
| 20260905212528 | 77 | 156 | 1.0 | 2.0 | 0.00 | 0.00 | 0.00 | 52 | 1016.9 |
| 20260905212029 | 77 | 184 | 0.0 | 2.0 | 0.00 | 0.00 | 0.00 | 52 | 1017.0 |
| 20260905211528 | 78 | 180 | 1.0 | 2.0 | 0.00 | 0.00 | 0.00 | 52 | 1017.0 |
| 20260905211030 | 78 | 195 | 1.0 | 3.0 | 0.00 | 0.00 | 0.00 | 52 | 1016.9 |
| 20260905210528 | 78 | 202 | 1.0 | 1.0 | 0.00 | 0.00 | 0.00 | 51 | 1016.9 |
| 20260905210029 | 78 | 202 | 1.0 | 2.0 | 0.00 | 0.00 | 0.00 | 51 | 1016.9 |
| 20260905205528 | 78 | 220 | 0.0 | 1.0 | 0.00 | 0.00 | 0.00 | 51 | 1016.9 |
| 20260905205030 | 78 | 183 | 1.0 | 2.0 | 0.00 | 0.00 | 0.00 | 51 | 1016.8 |
| 20260905204528 | 78 | 202 | 0.0 | 0.0 | 0.00 | 0.00 | 0.00 | 51 | 1016.8 |
| 20260905203528 | 78 | 198 | 1.0 | 1.0 | 0.00 | 0.00 | 0.00 | 51 | 1016.7 |
| 20260905202528 | 79 | 248 | 0.0 | 0.0 | 0.00 | 0.00 | 0.00 | 51 | 1016.9 |
| 20260905201528 | 79 | 255 | 0.0 | 0.0 | 0.00 | 0.00 | 0.00 | 50 | 1016.7 |
| 20260905201029 | 80 | 213 | 0.0 | 5.0 | 0.00 | 0.00 | 0.00 | 50 | 1016.7 |
| 20260905200528 | 80 | 233 | 0.0 | 2.0 | 0.00 | 0.00 | 0.00 | 50 | 1016.6 |
| 20260905200030 | 80 | 211 | 1.0 | 1.0 | 0.00 | 0.00 | 0.00 | 50 | 1016.6 |
| 20260905195528 | 80 | 225 | 0.0 | 0.0 | 0.00 | 0.00 | 0.00 | 50 | 1016.5 |
| 20260905195029 | 80 | 225 | 0.0 | 0.0 | 0.00 | 0.00 | 0.00 | 49 | 1016.6 |
| 20260905194528 | 81 | 225 | 0.0 | 0.0 | 0.00 | 0.00 | 0.00 | 49 | 1016.6 |
| 20260905194030 | 81 | 225 | 0.0 | 0.0 | 0.00 | 0.00 | 0.00 | 49 | 1016.5 |
| 20260905193528 | 81 | 217 | 0.0 | 0.0 | 0.00 | 0.00 | 0.00 | 50 | 1016.5 |
| 20260905193029 | 82 | 247 | 1.0 | 2.0 | 0.00 | 0.00 | 0.00 | 49 | 1016.4 |
| 20260905192528 | 82 | 225 | 0.0 | 1.0 | 0.00 | 0.00 | 0.00 | 49 | 1016.4 |
| 20260905192029 | 82 | 225 | 0.0 | 0.0 | 0.00 | 0.00 | 0.00 | 49 | 1016.3 |
| 20260905191529 | 82 | 225 | 0.0 | 0.0 | 0.00 | 0.00 | 0.00 | 49 | 1016.3 |
| 20260905191029 | 82 | 238 | 0.0 | 0.0 | 0.00 | 0.00 | 0.00 | 48 | 1016.2 |
| 20260905190528 | 83 | 225 | 0.0 | 0.0 | 0.00 | 0.00 | 0.00 | 48 | 1016.2 |
| 20260905190030 | 83 | 202 | 0.0 | 0.0 | 0.00 | 0.00 | 0.00 | 48 | 1016.2 |
| 20260905185528 | 83 | 180 | 0.0 | 0.0 | 0.00 | 0.00 | 0.00 | 48 | 1016.0 |
| 20260905185030 | 83 | 112 | 0.0 | 0.0 | 0.00 | 0.00 | 0.00 | 48 | 1016.0 |
| 20260905184529 | 83 | 109 | 0.0 | 0.0 | 0.00 | 0.00 | 0.00 | 48 | 1016.0 |
| 20260905184029 | 83 | 99 | 1.0 | 5.0 | 0.00 | 0.00 | 0.00 | 48 | 1015.9 |
| 20260905183528 | 83 | 107 | 2.0 | 3.0 | 0.00 | 0.00 | 0.00 | 48 | 1015.9 |
| 20260905183029 | 83 | 73 | 1.0 | 3.0 | 0.00 | 0.00 | 0.00 | 47 | 1015.9 |
| 20260905182528 | 84 | 92 | 1.0 | 3.0 | 0.00 | 0.00 | 0.00 | 47 | 1015.8 |
| 20260905181527 | 84 | 68 | 1.0 | 2.0 | 0.00 | 0.00 | 0.00 | 46 | 1015.7 |
| 20260905180529 | 84 | 67 | 1.0 | 2.0 | 0.00 | 0.00 | 0.00 | 46 | 1015.7 |
| 20260905180030 | 85 | 68 | 0.0 | 1.0 | 0.00 | 0.00 | 0.00 | 45 | 1015.6 |
| 20260905175529 | 85 | 45 | 0.0 | 1.0 | 0.00 | 0.00 | 0.00 | 45 | 1015.5 |
| 20260905175031 | 85 | 25 | 1.0 | 2.0 | 0.00 | 0.00 | 0.00 | 45 | 1015.5 |
| 20260905173529 | 86 | 29 | 1.0 | 2.0 | 0.00 | 0.00 | 0.00 | 44 | 1015.5 |
| 20260905173031 | 86 | 26 | 1.0 | 3.0 | 0.00 | 0.00 | 0.00 | 43 | 1015.4 |
| 20260905172529 | 86 | 31 | 1.0 | 6.0 | 0.00 | 0.00 | 0.00 | 43 | 1015.3 |
| 20260905172031 | 86 | 45 | 2.0 | 6.0 | 0.00 | 0.00 | 0.00 | 42 | 1015.3 |
| 20260905171529 | 87 | 62 | 1.0 | 10.0 | 0.00 | 0.00 | 0.00 | 42 | 1015.3 |
| 20260905171030 | 87 | 39 | 4.0 | 10.0 | 0.00 | 0.00 | 0.00 | 42 | 1015.3 |
| 20260905170529 | 87 | 17 | 5.0 | 9.0 | 0.00 | 0.00 | 0.00 | 41 | 1015.3 |
| 20260905170031 | 87 | 45 | 5.0 | 6.0 | 0.00 | 0.00 | 0.00 | 41 | 1015.2 |
| 20260905165529 | 88 | 66 | 5.0 | 9.0 | 0.00 | 0.00 | 0.00 | 41 | 1015.1 |
| 20260905165030 | 88 | 38 | 5.0 | 9.0 | 0.00 | 0.00 | 0.00 | 41 | 1015.1 |
| 20260905164528 | 88 | 57 | 3.0 | 7.0 | 0.00 | 0.00 | 0.00 | 40 | 1015.3 |
| 20260905163529 | 88 | 52 | 3.0 | 8.0 | 0.00 | 0.00 | 0.00 | 38 | 1015.2 |
| 20260905163030 | 89 | 68 | 3.0 | 10.0 | 0.00 | 0.00 | 0.00 | 38 | 1015.3 |
| 20260905162529 | 89 | 48 | 6.0 | 8.0 | 0.00 | 0.00 | 0.00 | 38 | 1015.1 |
| 20260905160529 | 89 | 36 | 4.0 | 6.0 | 0.00 | 0.00 | 0.00 | 37 | 1015.0 |
| 20260905160032 | 89 | 58 | 7.0 | 15.0 | 0.00 | 0.00 | 0.00 | 38 | 1014.9 |
| 20260905155529 | 89 | 56 | 7.0 | 12.0 | 0.00 | 0.00 | 0.00 | 39 | 1014.9 |
| 20260905155030 | 89 | 28 | 6.0 | 12.0 | 0.00 | 0.00 | 0.00 | 39 | 1014.8 |
| 20260905154529 | 89 | 61 | 6.0 | 12.0 | 0.00 | 0.00 | 0.00 | 39 | 1014.9 |
| 20260905154031 | 89 | 68 | 8.0 | 13.0 | 0.00 | 0.00 | 0.00 | 39 | 1014.9 |
| 20260905153528 | 90 | 61 | 6.0 | 13.0 | 0.00 | 0.00 | 0.00 | 40 | 1014.9 |
| 20260905153031 | 90 | 68 | 7.0 | 12.0 | 0.00 | 0.00 | 0.00 | 40 | 1014.9 |
| 20260905152030 | 90 | 65 | 6.0 | 10.0 | 0.00 | 0.00 | 0.00 | 40 | 1014.9 |
| 20260905151528 | 90 | 80 | 9.0 | 12.0 | 0.00 | 0.00 | 0.00 | 40 | 1015.0 |
| 20260905151030 | 91 | 53 | 9.0 | 14.0 | 0.00 | 0.00 | 0.00 | 40 | 1014.9 |
| 20260905150529 | 91 | 51 | 6.0 | 8.0 | 0.00 | 0.00 | 0.00 | 40 | 1014.9 |
| 20260905150030 | 91 | 68 | 9.0 | 9.0 | 0.00 | 0.00 | 0.00 | 40 | 1014.9 |
| 20260905145031 | 92 | 62 | 5.0 | 10.0 | 0.00 | 0.00 | 0.00 | 40 | 1015.0 |
| 20260905144529 | 92 | 68 | 7.0 | 10.0 | 0.00 | 0.00 | 0.00 | 39 | 1014.9 |
| 20260905143529 | 93 | 53 | 5.0 | 14.0 | 0.00 | 0.00 | 0.00 | 40 | 1014.9 |
| 20260905143031 | 93 | 28 | 7.0 | 12.0 | 0.00 | 0.00 | 0.00 | 39 | 1015.0 |
| 20260905142529 | 93 | 23 | 5.0 | 7.0 | 0.00 | 0.00 | 0.00 | 38 | 1015.0 |
| 20260905142030 | 92 | 40 | 3.0 | 8.0 | 0.00 | 0.00 | 0.00 | 38 | 1015.0 |
| 20260905141529 | 92 | 3 | 4.0 | 10.0 | 0.00 | 0.00 | 0.00 | 38 | 1015.0 |
| 20260905141029 | 92 | 22 | 3.0 | 7.0 | 0.00 | 0.00 | 0.00 | 37 | 1015.0 |
| 20260905140529 | 92 | 65 | 4.0 | 10.0 | 0.00 | 0.00 | 0.00 | 38 | 1015.0 |
| 20260905140030 | 92 | 41 | 4.0 | 9.0 | 0.00 | 0.00 | 0.00 | 38 | 1015.0 |
| 20260905135528 | 92 | 26 | 8.0 | 13.0 | 0.00 | 0.00 | 0.00 | 38 | 1015.1 |
| 20260905135030 | 93 | 34 | 4.0 | 12.0 | 0.00 | 0.00 | 0.00 | 39 | 1015.2 |
| 20260905134528 | 92 | 35 | 5.0 | 8.0 | 0.00 | 0.00 | 0.00 | 38 | 1015.2 |
| 20260905134030 | 93 | 35 | 7.0 | 13.0 | 0.00 | 0.00 | 0.00 | 38 | 1015.3 |
| 20260905133529 | 93 | 25 | 6.0 | 9.0 | 0.00 | 0.00 | 0.00 | 38 | 1015.3 |
| 20260905133030 | 92 | 24 | 7.0 | 9.0 | 0.00 | 0.00 | 0.00 | 37 | 1015.3 |
| 20260905132529 | 93 | 21 | 6.0 | 9.0 | 0.00 | 0.00 | 0.00 | 36 | 1015.4 |
| 20260905132030 | 93 | 10 | 6.0 | 10.0 | 0.00 | 0.00 | 0.00 | 37 | 1015.4 |
| 20260905131529 | 93 | 14 | 5.0 | 10.0 | 0.00 | 0.00 | 0.00 | 37 | 1015.4 |
| 20260905131030 | 93 | 22 | 4.0 | 9.0 | 0.00 | 0.00 | 0.00 | 38 | 1015.4 |
| 20260905130529 | 93 | 22 | 8.0 | 12.0 | 0.00 | 0.00 | 0.00 | 38 | 1015.5 |
| 20260905125529 | 93 | 35 | 6.0 | 9.0 | 0.00 | 0.00 | 0.00 | 38 | 1015.4 |
| 20260905125031 | 93 | 31 | 7.0 | 12.0 | 0.00 | 0.00 | 0.00 | 38 | 1015.4 |
| 20260905124529 | 93 | 2 | 5.0 | 9.0 | 0.00 | 0.00 | 0.00 | 38 | 1015.3 |
| 20260905124030 | 92 | 6 | 4.0 | 9.0 | 0.00 | 0.00 | 0.00 | 39 | 1015.4 |
| 20260905123030 | 92 | 12 | 4.0 | 12.0 | 0.00 | 0.00 | 0.00 | 39 | 1015.6 |
| 20260905122031 | 92 | 14 | 5.0 | 9.0 | 0.00 | 0.00 | 0.00 | 38 | 1015.6 |
| 20260905121529 | 92 | 9 | 9.0 | 12.0 | 0.00 | 0.00 | 0.00 | 38 | 1015.6 |
| 20260905121030 | 92 | 22 | 5.0 | 8.0 | 0.00 | 0.00 | 0.00 | 38 | 1015.8 |
| 20260905120030 | 92 | 31 | 5.0 | 9.0 | 0.00 | 0.00 | 0.00 | 38 | 1015.9 |
| 20260905115528 | 92 | 25 | 8.0 | 15.0 | 0.00 | 0.00 | 0.00 | 39 | 1015.8 |
| 20260905115031 | 92 | 24 | 9.0 | 12.0 | 0.00 | 0.00 | 0.00 | 38 | 1015.9 |
| 20260905114528 | 92 | 48 | 7.0 | 13.0 | 0.00 | 0.00 | 0.00 | 39 | 1016.0 |
| 20260905114030 | 93 | 38 | 9.0 | 13.0 | 0.00 | 0.00 | 0.00 | 38 | 1015.9 |
| 20260905113529 | 93 | 27 | 7.0 | 13.0 | 0.00 | 0.00 | 0.00 | 38 | 1015.8 |
| 20260905112529 | 93 | 22 | 4.0 | 13.0 | 0.00 | 0.00 | 0.00 | 38 | 1015.9 |
| 20260905112030 | 93 | 347 | 5.0 | 13.0 | 0.00 | 0.00 | 0.00 | 37 | 1015.9 |
| 20260905111528 | 93 | 6 | 10.0 | 13.0 | 0.00 | 0.00 | 0.00 | 38 | 1015.8 |
| 20260905111031 | 93 | 9 | 6.0 | 12.0 | 0.00 | 0.00 | 0.00 | 38 | 1015.8 |
| 20260905110033 | 93 | 46 | 7.0 | 13.0 | 0.00 | 0.00 | 0.00 | 37 | 1015.8 |
| 20260905105528 | 93 | 29 | 9.0 | 14.0 | 0.00 | 0.00 | 0.00 | 38 | 1015.9 |
| 20260905105030 | 94 | 36 | 5.0 | 14.0 | 0.00 | 0.00 | 0.00 | 38 | 1015.8 |
| 20260905104529 | 93 | 358 | 7.0 | 10.0 | 0.00 | 0.00 | 0.00 | 38 | 1015.9 |
| 20260905104030 | 93 | 1 | 5.0 | 7.0 | 0.00 | 0.00 | 0.00 | 38 | 1015.8 |
| 20260905103529 | 92 | 13 | 5.0 | 9.0 | 0.00 | 0.00 | 0.00 | 38 | 1015.9 |
| 20260905103030 | 92 | 357 | 5.0 | 8.0 | 0.00 | 0.00 | 0.00 | 39 | 1015.9 |
| 20260905102528 | 91 | 16 | 6.0 | 10.0 | 0.00 | 0.00 | 0.00 | 39 | 1015.8 |
| 20260905102030 | 91 | 337 | 6.0 | 10.0 | 0.00 | 0.00 | 0.00 | 40 | 1016.0 |
| 20260905101529 | 90 | 337 | 5.0 | 9.0 | 0.00 | 0.00 | 0.00 | 42 | 1016.1 |
| 20260905101031 | 89 | 53 | 6.0 | 10.0 | 0.00 | 0.00 | 0.00 | 43 | 1016.0 |
| 20260905100030 | 89 | 22 | 7.0 | 12.0 | 0.00 | 0.00 | 0.00 | 43 | 1016.0 |
| 20260905095529 | 90 | 0 | 7.0 | 12.0 | 0.00 | 0.00 | 0.00 | 43 | 1016.0 |
| 20260905094529 | 91 | 0 | 5.0 | 10.0 | 0.00 | 0.00 | 0.00 | 42 | 1015.9 |
| 20260905094030 | 91 | 8 | 7.0 | 10.0 | 0.00 | 0.00 | 0.00 | 41 | 1015.9 |
| 20260905093529 | 92 | 353 | 9.0 | 14.0 | 0.00 | 0.00 | 0.00 | 40 | 1015.9 |
| 20260905093030 | 92 | 350 | 9.0 | 12.0 | 0.00 | 0.00 | 0.00 | 39 | 1015.8 |
| 20260905092529 | 92 | 8 | 6.0 | 13.0 | 0.00 | 0.00 | 0.00 | 39 | 1016.0 |
| 20260905091529 | 92 | 354 | 5.0 | 7.0 | 0.00 | 0.00 | 0.00 | 38 | 1016.0 |
| 20260905091030 | 92 | 351 | 2.0 | 6.0 | 0.00 | 0.00 | 0.00 | 36 | 1015.8 |
| 20260905090528 | 92 | 0 | 4.0 | 6.0 | 0.00 | 0.00 | 0.00 | 36 | 1015.9 |
| 20260905090030 | 92 | 348 | 1.0 | 6.0 | 0.00 | 0.00 | 0.00 | 38 | 1015.8 |
| 20260905085529 | 91 | 345 | 1.0 | 6.0 | 0.00 | 0.00 | 0.00 | 37 | 1015.7 |
| 20260905085030 | 91 | 318 | 1.0 | 6.0 | 0.00 | 0.00 | 0.00 | 36 | 1015.6 |
| 20260905084529 | 91 | 340 | 4.0 | 10.0 | 0.00 | 0.00 | 0.00 | 36 | 1015.7 |
| 20260905084030 | 91 | 2 | 4.0 | 7.0 | 0.00 | 0.00 | 0.00 | 36 | 1015.5 |
| 20260905083528 | 90 | 324 | 2.0 | 6.0 | 0.00 | 0.00 | 0.00 | 36 | 1015.5 |
| 20260905083031 | 90 | 339 | 5.0 | 8.0 | 0.00 | 0.00 | 0.00 | 36 | 1015.6 |
| 20260905082529 | 90 | 336 | 4.0 | 7.0 | 0.00 | 0.00 | 0.00 | 37 | 1015.6 |
| 20260905082031 | 90 | 312 | 2.0 | 6.0 | 0.00 | 0.00 | 0.00 | 39 | 1015.6 |
| 20260905081030 | 90 | 344 | 2.0 | 6.0 | 0.00 | 0.00 | 0.00 | 39 | 1015.6 |
| 20260905080528 | 90 | 336 | 3.0 | 7.0 | 0.00 | 0.00 | 0.00 | 40 | 1015.6 |
| 20260905075529 | 90 | 312 | 3.0 | 6.0 | 0.00 | 0.00 | 0.00 | 41 | 1015.3 |
| 20260905075031 | 90 | 309 | 2.0 | 7.0 | 0.00 | 0.00 | 0.00 | 41 | 1015.3 |
| 20260905074529 | 90 | 321 | 3.0 | 6.0 | 0.00 | 0.00 | 0.00 | 40 | 1015.3 |
| 20260905074030 | 90 | 309 | 1.0 | 3.0 | 0.00 | 0.00 | 0.00 | 40 | 1015.3 |
| 20260905073528 | 89 | 2 | 1.0 | 2.0 | 0.00 | 0.00 | 0.00 | 40 | 1015.1 |
| 20260905073030 | 89 | 114 | 0.0 | 1.0 | 0.00 | 0.00 | 0.00 | 42 | 1015.2 |